CAPE
0 0 0 0 0 0 0 0 0 0 0 0 0 0 0 0 0 0 2 1 2 8 10 15 12 10 7 1 0 0 1 2 18 16 17 29 10 7 53 101 24 36 106
0 0 0 0 0 0 0 0 0 0 0 0 0 0 0 0 0 0 0 4 5 8 8 10 11 16 15 10 5 0 0 2 19 20 21 0 0 0 33 71 4 0 13
0 0 0 0 0 0 0 0 0 0 0 0 0 0 0 0 0 0 1 8 10 8 2 0 0 0 1 2 11 10 3 2 0 5 18 9 29 12 13 14 1 58 46
0 0 0 0 0 0 0 0 0 0 0 0 0 0 1 3 4 5 2 1 0 0 0 0 0 0 1 16 13 11 14 8 9 5 3 10 27 6 25 21 1 3 16
0 0 0 0 0 0 0 0 0 0 0 0 0 1 2 2 0 0 0 0 0 0 0 3 8 11 19 24 30 16 11 10 5 1 1 9 0 16 19 3 23 5 14
0 0 0 0 0 0 0 0 0 0 2 2 1 3 3 0 0 0 0 0 0 0 0 2 4 12 7 12 23 26 27 24 14 16 14 5 2 0 2 34 9 24 0
0 0 0 0 0 0 0 0 0 0 0 1 1 5 1 3 4 2 0 0 0 0 0 0 0 10 9 9 25 31 34 35 19 8 10 8 0 0 0 17 41 6 0
0 0 0 0 0 0 0 0 0 0 0 1 3 2 3 3 3 0 0 0 0 0 3 9 9 3 7 13 17 29 17 19 30 60 45 13 0 0 0 3 4 3 8
0 0 0 0 0 0 0 0 0 0 0 1 1 0 0 3 0 0 0 3 0 0 5 0 0 0 0 0 5 16 11 1 2 6 2 0 0 0 0 2 21 5 0
0 0 0 0 1 0 0 0 0 0 0 1 1 0 1 1 0 2 0 0 0 0 0 0 0 0 0 0 0 0 2 0 1 0 0 0 0 0 0 9 41 7 9
1 0 0 0 0 0 0 0 0 2 1 1 0 0 2 0 0 0 0 0 0 0 0 0 0 0 0 0 0 0 1 0 1 2 2 1 3 94 21 0 0 0 28
1 0 0 0 0 0 1 0 0 1 1 1 1 0 0 0 0 3 0 0 0 0 1 1 2 1 0 0 0 0 1 1 3 4 4 3 5 5 107 127 25 15 126
1 1 0 0 0 0 0 0 1 1 0 1 1 2 1 0 0 0 0 0 0 0 0 0 2 0 0 0 0 0 0 1 0 1 2 1 1 1 117 207 279 349 292
1 1 0 0 0 0 0 1 1 2 2 2 2 2 0 0 0 0 1 0 0 0 0 0 0 0 0 0 0 1 12 0 1 1 1 6 50 57 136 194 224 286 271
1 1 0 0 0 1 1 2 1 1 1 1 2 2 2 0 0 0 0 0 0 0 0 0 0 16 36 40 4 13 6 12 0 0 1 2 0 0 12 122 236 312 165
1 1 1 1 1 1 3 3 1 0 0 0 0 0 0 0 0 0 0 0 0 0 0 1 0 2 35 52 59 14 9 21 0 0 0 0 0 1 113 241 292 42 1
1 2 1 0 2 3 2 3 4 1 0 0 0 0 0 0 0 0 0 0 0 0 8 48 77 79 6 8 6 39 24 4 20 0 1 11 34 3 3 26 1 2 3
1 2 1 1 2 2 3 4 3 4 4 1 0 0 0 0 0 0 0 0 3 5 33 145 249 189 96 68 3 47 116 125 131 43 63 32 21 24 7 0 21 4 0
1 1 1 1 2 2 3 4 3 4 4 3 2 0 0 0 1 0 0 2 0 8 9 112 184 223 184 114 28 27 44 108 115 163 64 66 56 103 158 147 20 6 18
0 0 0 0 2 2 3 4 5 5 5 5 4 4 4 3 2 4 2 19 5 1 2 15 60 181 201 214 95 43 31 35 108 105 138 140 186 235 206 66 30 32 15
0 0 0 1 1 1 2 3 4 5 5 4 3 1 2 4 9 8 5 2 0 0 0 27 32 23 4 50 30 2 88 90 116 102 177 178 230 234 227 164 119 0 0
0 0 0 0 0 1 1 1 2 4 4 5 4 3 3 4 7 6 5 0 0 0 3 1 36 2 13 0 0 0 0 0 3 97 144 169 215 217 234 147 21 0 1
0 0 0 0 0 0 0 0 1 1 1 2 2 3 4 5 6 6 5 1 0 1 0 1 0 0 0 0 0 0 0 0 0 0 164 181 187 199 161 87 41 2 3
0 0 0 0 0 2 0 0 0 0 1 1 1 2 3 4 4 4 2 1 1 0 0 0 1 0 0 0 0 0 0 0 0 0 4 153 138 150 129 135 64 0 0
0 0 0 0 0 0 0 1 0 0 0 1 1 1 1 1 2 2 1 1 0 0 0 0 0 0 0 0 0 0 0 0 0 0 0 106 27 0 0 0 0 0 0
0 0 2 1 1 0 0 0 0 0 0 0 0 0 0 0 0 0 1 1 1 0 0 0 0 0 0 0 0 0 0 0 0 0 0 57 66 0 0 0 0 0 0
CIN
-0 -0 -0 -0 -0 -0 -0 -0 -0 -0 -0 -0 -0 -0 -0 -0 -0 -0 -1 -2 -5 -8 -6 -2 -2 -2 -4 -5 -0 -0 -0 -0 -0 -1 -1 -1 -2 -0 -11 -64 -21 -19 -200
-0 -0 -0 -0 -0 -0 -0 -0 -0 -0 -0 -0 -0 -0 -0 -0 -0 -0 -0 -3 -3 -3 -3 -3 -2 -2 -1 -2 -4 -0 -0 -1 -0 -0 -0 -0 -0 -1 -14 -7 -20 -0 -26
-0 -0 -0 -0 -0 -0 -0 -0 -0 -0 -0 -0 -0 -0 -0 -0 -0 -0 -0 -2 -2 -4 -9 -18 -2 -0 -1 -13 -7 -5 -5 -0 -0 -0 -0 -0 -1 -2 -12 -9 -3 -205 -216
-0 -0 -0 -0 -0 -0 -0 -0 -0 -0 -0 -0 -0 -0 -1 -1 -2 -2 -3 -7 -0 -0 -0 -0 -0 -0 -8 -1 -4 -2 -3 -3 -0 -0 -0 -0 -0 -7 -7 -5 -2 -12 -6
-0 -0 -0 -0 -0 -0 -0 -0 -0 -0 -0 -0 -0 -1 -1 -3 -0 -0 -0 -0 -0 -0 -0 -3 -0 -1 -0 -7 -3 -2 -6 -2 -3 -0 -1 -0 -0 -0 -0 -10 -17 -29 -6
-0 -0 -0 -0 -0 -0 -0 -0 -0 -0 -1 -1 -3 -2 -6 -0 -0 -0 -7 -0 -0 -0 -0 -5 -1 -1 -4 -2 -2 -2 -7 -0 -0 -0 -0 -1 -0 -0 -1 -5 -15 -6 -0
-0 -0 -0 -0 -0 -0 -0 -0 -0 -0 -5 -2 -4 -6 -4 -1 -1 -5 -0 -0 -0 -0 -0 -0 -0 -0 -0 -1 -1 -1 -1 -3 -8 -13 -6 -0 -0 -0 -0 -4 -2 -5 -0
-0 -0 -0 -0 -0 -0 -0 -0 -0 -0 -0 -0 -4 -3 -1 -1 -1 -1 -0 -0 -0 -0 -0 -1 -0 -1 -2 -2 -1 -0 -1 -1 -1 -0 -3 -10 -0 -0 -0 -0 -2 -5 -23
-0 -0 -0 -0 -0 -0 -0 -0 -0 -0 -0 -0 -3 -0 -0 -1 -0 -0 -0 -4 -0 -0 -1 -0 -0 -0 -0 -0 -0 -0 -0 -16 -24 -11 -11 -0 -0 -0 -0 -2 -0 -2 -0
-0 -0 -1 -0 -0 -0 -0 -1 -0 -0 -0 -0 -2 -1 -1 -1 -0 -8 -0 -8 -0 -0 -0 -0 -0 -0 -0 -0 -0 -0 -0 -0 -0 -0 -0 -0 -0 -0 -0 -5 -4 -0 -15
-0 -0 -0 -0 -0 -0 -0 -0 -0 -0 -0 -0 -0 -0 -1 -0 -0 -18 -1 -0 -0 -0 -0 -0 -0 -0 -0 -0 -0 -0 -0 -0 -0 -0 -0 -0 -0 -1 -11 -0 -0 -0 -5
-0 -0 -0 -0 -0 -0 -0 -0 -0 -0 -0 -0 -0 -0 -0 -0 -10 -2 -0 -0 -0 -0 -0 -0 -0 -0 -0 -0 -0 -0 -0 -0 -0 -0 -0 -0 -0 -0 -0 -1 -25 -17 -7
-0 -0 -0 -0 -0 -0 -0 -0 -0 -0 -0 -0 -0 -0 -0 -0 -0 -0 -0 -0 -0 -0 -0 -0 -0 -0 -0 -0 -0 -0 -0 -0 -0 -0 -0 -0 -0 -70 -6 -1 -11 -3 -1
-0 -0 -0 -0 -0 -0 -0 -0 -0 -0 -0 -0 -0 -0 -0 -0 -0 -2 -1 -0 -0 -0 -0 -0 -0 -0 -0 -0 -0 -19 -17 -0 -0 -0 -0 -13 -14 -5 -1 -3 -0 -0 -3
-0 -0 -0 -0 -0 -0 -0 -0 -0 -0 -0 -0 -0 -0 -0 -0 -0 -0 -0 -0 -0 -0 -0 -0 -0 -61 -46 -65 -25 -31 -33 -6 -0 -0 -0 -0 -0 -0 -72 -30 -1 -1 -0
-0 -0 -0 -0 -0 -0 -0 -0 -0 -0 -0 -0 -0 -0 -0 -0 -0 -0 -0 -0 -0 -0 -0 -14 -0 -39 -39 -50 -30 -8 -3 -7 -29 -0 -0 -0 -17 -0 -37 -1 -0 -35 -0
-0 -0 -0 -0 -0 -0 -0 -0 -0 -0 -0 -0 -0 -0 -0 -0 -0 -0 -0 -0 -0 -0 -118 -56 -41 -33 -50 -23 -32 -30 -33 -54 -23 -8 -32 -34 -1 -0 -33 -29 -1 -0 -0
-0 -0 -0 -0 -0 -0 -0 -0 -0 -0 -0 -0 -0 -0 -0 -0 -0 -0 -0 -0 -53 -17 -55 -56 -48 -21 -17 -29 -7 -23 -23 -41 -15 -47 -46 -26 -22 -5 -1 -8 -19 -39 -4
-0 -0 -0 -0 -0 -0 -0 -0 -0 -0 -0 -0 -0 -0 -0 -0 -0 -0 -0 -44 -16 -102 -79 -92 -74 -8 -9 -17 -41 -35 -24 -53 -46 -24 -23 -34 -41 -23 -4 -0 -47 -34 -59
-0 -0 -0 -0 -0 -0 -0 -0 -0 -0 -0 -0 -0 -0 -0 -0 -0 -0 -0 -18 -45 -96 -72 -120 -76 -44 -58 -28 -25 -74 -49 -20 -24 -20 -25 -27 -23 -21 -25 -52 -49 -46 -93
-0 -0 -0 -0 -0 -0 -0 -0 -0 -0 -0 -0 -0 -0 -0 -0 -0 -0 -0 -0 -0 -0 -1 -97 -96 -58 -68 -64 -67 -65 -14 -12 -21 -13 -29 -25 -13 -17 -14 -30 -44 -10 -0
-0 -0 -0 -0 -0 -0 -0 -0 -0 -0 -0 -0 -0 -0 -0 -0 -0 -0 -0 -0 -0 -0 -0 -0 -52 -10 -40 -0 -0 -0 -0 -0 -38 -9 -20 -13 -20 -14 -16 -37 -146 -171 -0
-0 -0 -0 -0 -0 -0 -0 -0 -0 -0 -0 -0 -0 -0 -0 -0 -0 -0 -0 -0 -0 -0 -0 -0 -0 -0 -0 -0 -0 -0 -0 -0 -0 -0 -18 -24 -18 -12 -13 -42 -132 -0 -0
-0 -0 -0 -0 -0 -0 -0 -0 -0 -0 -0 -0 -0 -0 -0 -0 -0 -0 -0 -0 -0 -0 -1 -0 -0 -0 -0 -0 -0 -0 -0 -0 -0 -0 -4 -19 -20 -17 -21 -2 -24 -0 -0
-0 -1 -0 -0 -0 -0 -0 -0 -0 -0 -0 -0 -0 -0 -0 -0 -0 -0 -0 -0 -0 -0 -0 -0 -0 -0 -0 -0 -0 -0 -0 -0 -0 -0 -0 -11 -37 -0 -0 -0 -3 -0 -0
-0 -0 -1 -1 -0 -0 -0 -0 -0 -0 -0 -0 -0 -0 -0 -0 -0 -0 -0 -0 -0 -0 -0 -0 -0 -0 -0 -0 -0 -0 -0 -0 -0 -0 -0 -13 -17 -0 -0 -0 -0 -0 -0
Wind_Speed
15 17 19 21 23 25 26 27 29 32 35 36 36 37 40 42 41 41 41 43 43 42 40 39 40 39 39 40 41 42 43 45 55 50 45 44 44 41 37 35 34 35 33
16 18 21 23 25 27 28 29 32 33 34 36 38 40 41 41 41 42 43 40 40 39 39 40 41 40 41 41 41 42 44 44 49 56 50 48 48 45 40 35 36 37 38
21 22 24 26 29 31 33 35 36 38 39 39 40 41 42 42 42 40 38 37 37 39 40 42 43 45 46 45 44 44 46 45 48 52 53 48 45 42 44 42 40 34 32
25 27 29 31 34 35 36 37 37 38 40 41 41 42 40 39 38 39 40 41 41 41 43 46 47 48 49 48 47 46 46 47 46 48 50 49 45 40 38 37 38 34 30
30 31 33 35 36 36 38 38 38 39 41 41 42 40 39 39 38 38 40 40 41 44 45 46 47 47 47 49 49 49 50 51 50 50 51 48 46 42 37 36 36 36 31
33 34 35 37 38 38 39 40 40 41 41 40 39 37 37 36 37 39 40 44 46 46 47 47 46 45 45 45 45 46 46 47 49 49 48 49 49 46 42 35 35 33 32
35 36 37 38 39 40 40 41 42 42 41 39 37 35 35 35 37 41 46 45 41 40 44 44 43 40 42 43 42 43 44 44 47 50 52 50 49 45 41 39 36 34 35
36 37 37 39 40 41 42 42 42 41 40 37 35 36 35 34 37 41 42 38 37 38 36 38 40 42 39 39 38 37 39 42 44 44 46 49 48 47 46 42 40 38 37
36 37 38 40 42 42 42 41 40 39 38 36 35 34 33 35 40 39 38 35 32 33 34 37 35 33 30 31 30 29 28 28 35 45 50 52 52 50 46 42 42 39 40
36 38 39 40 41 41 40 39 37 35 35 33 33 30 35 35 36 34 29 29 30 33 31 29 25 21 16 13 16 18 18 15 16 29 40 42 44 45 42 39 39 40 37
38 39 39 39 40 39 38 37 37 36 35 33 30 31 31 35 30 25 24 26 25 25 25 22 19 13 11 10 11 10 12 18 26 31 36 40 38 29 28 34 37 37 39
37 38 38 38 38 38 37 36 35 32 29 28 30 32 32 29 26 27 24 24 15 15 13 17 9 11 10 11 9 11 16 23 28 29 33 37 40 38 34 32 33 36 35
36 37 37 36 35 34 33 33 33 31 31 30 30 29 30 28 27 23 28 27 26 10 8 2 8 7 5 1 4 19 12 13 22 26 30 36 38 40 35 32 36 33 33
34 34 33 33 32 30 31 32 33 30 28 27 26 28 27 25 26 23 26 23 18 4 4 6 8 4 2 7 8 5 6 10 13 17 19 21 19 25 35 34 31 31 32
31 31 31 29 29 29 29 31 32 24 22 20 21 19 12 3 6 14 15 11 7 5 7 5 11 12 14 11 12 11 11 10 5 9 12 11 18 28 38 40 30 27 26
32 28 27 26 24 26 29 32 29 19 15 14 5 5 4 9 13 12 11 9 5 3 9 12 10 15 15 20 21 26 21 19 22 18 11 14 12 19 38 44 32 26 24
28 26 24 21 23 26 29 33 33 27 22 17 15 15 13 10 12 12 9 7 7 9 5 1 7 16 11 8 18 17 19 20 16 15 20 10 9 18 19 16 17 21 22
26 26 22 21 22 25 28 32 29 23 21 14 13 14 15 14 12 10 11 8 13 9 2 1 4 4 6 26 8 13 19 23 15 21 19 15 16 18 17 22 18 21 17
27 27 23 22 23 26 29 31 28 22 24 20 16 17 18 15 10 8 10 10 10 3 1 2 4 2 3 18 22 18 17 21 17 15 13 13 12 10 10 12 13 12 13
25 27 25 23 25 27 28 29 30 26 22 21 18 19 19 15 13 12 10 11 6 4 3 5 3 8 6 5 10 24 15 15 18 16 27 34 20 16 16 23 21 19 17
24 26 26 26 27 28 29 28 27 23 23 21 19 18 20 16 15 13 10 9 8 8 12 8 1 7 6 5 9 10 11 11 13 10 7 9 20 8 16 14 20 12 15
25 26 27 28 27 28 30 29 28 25 24 22 21 20 20 18 18 14 11 10 12 14 13 9 21 26 5 8 11 9 11 16 14 13 10 7 8 4 6 7 7 5 5
26 26 26 27 28 29 29 30 30 28 24 22 21 20 20 19 18 15 12 12 11 15 12 12 10 10 12 13 13 18 17 11 12 12 17 14 7 1 4 5 7 5 5
26 26 27 27 28 28 29 29 31 30 27 21 21 21 20 19 18 16 14 12 13 14 13 15 14 16 14 15 15 15 15 14 13 14 12 20 14 10 6 5 6 9 13
26 26 27 27 28 28 29 28 29 30 28 23 21 20 20 18 18 17 18 17 17 17 16 16 16 16 16 17 19 19 18 17 15 15 13 18 19 17 15 12 11 12 12
26 27 27 27 28 28 29 28 29 29 28 25 22 21 21 19 19 19 19 21 20 20 20 18 19 19 19 20 21 21 20 19 18 17 16 15 18 17 16 16 15 15 16
Wind_Direction
315 313 311 310 311 311 312 312 311 310 311 312 313 313 313 312 311 311 310 310 309 309 309 307 306 306 304 303 301 300 297 294 289 292 294 292 290 291 292 293 297 297 296
323 318 313 313 313 312 312 313 312 312 314 314 314 313 313 312 312 311 311 311 311 310 310 308 306 305 303 302 300 298 296 295 293 288 291 288 285 287 290 289 292 295 291
318 316 315 313 310 310 309 310 311 311 312 312 313 312 312 312 312 312 313 313 313 312 311 309 307 305 302 302 300 298 296 295 291 289 288 289 288 288 282 283 287 294 294
317 316 314 313 311 311 310 311 311 312 312 312 312 312 312 313 314 314 313 312 312 311 310 308 306 304 301 299 298 296 294 292 292 289 286 287 286 285 286 285 282 287 290
313 313 312 312 312 311 310 310 311 311 312 311 311 311 312 313 314 315 315 315 313 312 312 310 308 305 302 299 296 294 291 288 286 286 284 283 281 284 280 279 281 286 286
312 312 312 313 312 312 311 311 312 312 311 312 312 314 315 316 316 316 317 315 314 312 312 313 311 308 305 302 298 293 290 287 283 281 280 277 274 275 279 277 276 279 281
313 311 312 313 312 312 312 312 311 311 312 313 314 315 316 317 318 318 317 317 318 317 316 316 315 313 311 307 302 298 292 286 282 278 275 273 270 267 271 273 272 273 274
314 314 314 313 313 313 313 313 312 312 312 314 315 315 316 320 322 322 322 322 321 321 321 321 318 316 315 312 308 304 299 292 285 278 272 269 265 264 261 265 268 271 274
315 314 314 314 314 314 314 314 315 314 313 314 315 318 321 324 325 326 326 327 328 328 326 325 323 320 316 317 313 311 308 303 294 277 270 263 261 262 258 259 259 264 264
317 315 315 315 315 315 315 315 315 316 314 318 320 324 324 326 329 330 332 334 333 333 333 332 329 323 309 298 319 317 313 260 242 230 262 260 260 256 253 254 255 256 257
318 317 317 318 317 316 314 314 310 312 317 322 327 329 330 331 332 333 335 336 340 342 344 344 347 337 323 292 268 291 258 243 238 234 232 241 257 262 258 254 253 253 246
319 318 318 318 317 311 308 306 306 320 330 333 334 334 336 337 339 341 348 347 351 353 345 351 296 288 294 272 270 258 253 243 233 222 219 223 239 250 256 251 247 245 244
321 321 319 316 314 309 303 304 316 327 331 336 337 340 341 344 345 350 346 335 286 16 19 288 265 303 310 29 216 262 240 242 235 214 212 222 226 237 246 247 241 239 231
323 321 321 313 306 304 311 316 319 334 342 342 345 346 347 350 349 357 291 281 270 74 232 272 287 290 66 72 73 208 175 239 248 241 171 197 253 246 223 224 228 222 217
318 313 317 310 310 314 308 314 328 351 352 351 351 358 10 309 248 263 267 251 232 220 272 37 83 73 64 72 77 107 110 121 171 304 279 359 259 243 211 197 215 209 208
331 316 315 315 302 304 309 310 346 9 10 16 53 203 218 224 254 248 235 237 220 208 101 105 76 67 72 65 77 72 82 101 98 4 332 359 244 180 135 156 192 193 192
329 322 320 307 311 314 318 338 347 16 37 67 306 313 304 258 249 245 213 193 146 131 193 248 87 90 76 93 88 97 97 95 127 140 126 138 144 136 148 138 165 177 183
337 333 322 316 319 324 334 352 18 51 63 302 300 306 306 300 277 228 193 172 106 121 159 272 271 137 92 89 67 97 104 94 121 127 138 147 141 137 135 154 153 167 173
346 341 330 325 328 338 350 1 34 61 0 333 316 316 315 301 282 219 201 162 142 198 332 360 332 208 103 100 100 100 103 102 111 127 140 154 152 133 110 127 123 138 152
354 347 343 335 340 348 352 358 10 5 342 337 329 329 322 315 308 291 269 213 231 235 318 336 57 95 48 70 90 102 99 97 106 115 118 111 139 148 150 153 159 161 164
356 354 348 345 349 353 356 356 353 342 342 333 328 327 332 326 315 305 266 278 286 301 305 271 173 131 29 47 53 39 85 38 37 41 55 114 147 85 160 167 170 171 179
344 353 -0 355 353 354 0 1 354 342 335 330 330 328 333 335 331 316 291 295 315 312 318 335 114 79 8 24 7 357 12 14 19 20 28 32 45 137 160 172 180 187 201
349 352 352 359 358 360 360 2 359 352 340 332 329 329 329 330 331 315 299 290 298 328 329 354 6 3 359 0 3 5 4 1 1 4 17 20 22 52 178 28 43 39 26
352 356 353 355 352 354 359 1 2 356 350 335 334 332 327 326 323 324 307 285 303 310 341 353 352 1 355 354 352 351 348 345 348 350 351 17 11 4 352 352 352 29 55
355 355 356 350 353 351 352 355 359 360 353 340 333 330 326 319 323 312 315 310 300 309 314 321 333 340 338 341 341 339 336 338 337 337 339 5 14 13 14 5 8 23 31
357 354 357 355 354 353 353 348 351 349 353 340 329 328 328 319 315 318 314 316 315 313 311 306 316 322 323 329 328 327 325 322 322 323 324 337 4 4 4 13 14 9 2